Location: Faicchio
(41.2833°N, 14.4833°E)
Time: 05:54:19
(UTC+00:00)

Cosmos 1655 Rocket - Pass Details

Date: 15 June 2025
Orbit: 970 x 1005 km, 83.0° (Epoch: 16 July)

Event Time Altitude Azimuth Distance (km) Brightness Sun altitude
Exits shadow 02:24:34 - 181° (S) 3,668 6.6 -10.2°
Reaches altitude 10° 02:27:02 10° 180° (S) 2,740 6.0 -9.9°
Maximum altitude 02:33:19 78° 95° (E) 1,021 4.2 -9.0°
Drops below altitude 10° 02:39:42 10° 10° (N) 2,780 7.2 -8.1°
Sets 02:42:15 0° 9° (N) 3,737 7.9 -7.8°
